Location: Cahas Mountain Overlook
(37.0833°N, 80.1000°W)
Time: 17:40:54
(UTC-04:00)

Vanguard 1 - Visible Passes

Search period start: 27 May 2022 00:00
Search period end: 06 June 2022 00:00
Orbit: 649 x 3833 km, 34.3° (Epoch: 27 May)

Date Brightness Start Highest point End Pass type
(mag) Time Alt. Az. Time Alt. Az. Time Alt. Az.
27 May 11.9 01:17:38 49° SSE 01:19:11 51° SE 01:37:58 10° ENE visible
27 May 12.5 03:30:15 19° WSW 03:43:06 80° S 04:06:40 10° E visible
27 May 12.9 23:23:48 18° ESE 23:23:48 18° ESE 23:29:19 10° E visible
28 May 11.8 01:36:25 51° SSW 01:39:47 60° SSE 01:59:39 10° E visible
28 May 12.5 03:49:01 11° W 04:04:26 82° S 04:28:13 10° E visible
28 May 12.5 23:42:32 26° ESE 23:42:32 26° ESE 23:51:52 10° E visible
29 May 11.9 01:55:09 43° SW 02:00:36 68° SSE 02:21:17 10° E visible
29 May 12.6 04:09:39 10° W 04:25:49 82° S 04:49:43 10° E visible
30 May 12.0 00:01:13 37° SE 00:01:13 37° SE 00:13:54 10° E visible
30 May 12.0 02:13:50 32° WSW 02:21:34 75° SSE 02:42:55 10° E visible
30 May 12.7 04:30:34 10° W 04:47:13 80° S 05:11:07 10° ESE visible
31 May 11.6 00:19:49 47° SSE 00:19:59 47° SE 00:35:41 10° E visible
31 May 12.1 02:32:25 20° WSW 02:42:41 79° S 03:04:33 10° E visible
31 May 12.7 04:51:31 10° W 05:08:35 76° SSW 05:32:23 10° ESE visible
31 May 12.8 22:25:43 13° E 22:25:43 13° E 22:27:31 10° E visible
01 Jun 11.4 00:38:18 51° S 00:40:30 57° SSE 00:57:21 10° E visible
01 Jun 12.2 02:50:56 10° W 03:03:52 81° S 03:26:11 10° E visible
01 Jun 12.8 05:12:30 10° W 05:29:54 71° SSW 05:53:27 10° ESE visible
01 Jun 12.2 22:43:59 22° ESE 22:43:59 22° ESE 22:50:11 10° E visible
02 Jun 11.5 00:56:32 40° SW 01:01:12 66° SSE 01:18:58 10° E visible
02 Jun 12.2 03:11:44 10° W 03:25:07 81° S 03:47:45 10° E visible
02 Jun 11.5 23:01:47 33° SE 23:01:47 33° SE 23:12:11 10° E visible
03 Jun 11.6 01:14:15 21° WSW 01:22:04 73° SSE 01:40:34 10° E visible
03 Jun 12.3 03:32:33 10° W 03:46:24 79° S 04:09:15 10° ESE visible
03 Jun 11.2 23:14:23 10° SW 23:21:26 43° SE 23:33:54 10° E visible
04 Jun 11.6 01:32:54 10° WSW 01:43:03 78° S 02:02:12 10° E visible
04 Jun 12.4 03:53:23 10° W 04:07:38 75° SSW 04:30:35 10° ESE visible
04 Jun 11.8 21:20:14 10° SSE 21:22:59 13° SE 21:26:16 10° ESE visible
04 Jun 11.1 23:34:32 10° SW 23:41:53 53° SSE 23:55:28 10° E visible
05 Jun 11.7 01:53:34 10° W 02:04:07 80° S 02:23:50 10° E visible
05 Jun 12.5 04:14:16 10° W 04:28:51 69° SSW 04:51:44 10° ESE visible
05 Jun 11.5 21:38:30 10° S 21:43:01 20° SE 21:49:17 10° E visible
